Memphis, TN

2:00 PM CST on November 21, 2017 (GMT -0600)
Memphis International

Weather History for KMEM - October, 2010

Change the Weather History Date:

Thursday, October 14, 2010

  Actual Average Record
Temperature  
Mean Temperature 63 °F 65 °F  
Max Temperature 75 °F 75 °F 90 °F (1963)
Min Temperature 51 °F 54 °F 39 °F (1946)
Degree Days  
Heating Degree Days 2 3  
Month to date heating degree days 21 31  
Since 1 July heating degree days 21 42  
Cooling Degree Days 0 3  
Month to date cooling degree days 63 58  
Year to date cooling degree days 2792 2209  
Growing Degree Days 12 (Base 50)    
Moisture  
Dew Point 36 °F    
Average Humidity 40    
Maximum Humidity 63    
Minimum Humidity 17    
Precipitation  
Precipitation 0.00 in 0.13 in 1.87 in (1919)
Month to date precipitation T 1.66  
Year to date precipitation 36.77 40.13  
Snow  
Snow 0.00 in 0.00 in 0.00 in (2002)
Month to date snowfall 0.0 0.0  
Since 1 July snowfall 0.0 0.0  
Since 1 September snowfall 0.0 0.0  
Snow Depth -    
Sea Level Pressure  
Sea Level Pressure 30.15 in    
Wind  
Wind Speed 7 mph (North)    
Max Wind Speed 15 mph    
Max Gust Speed 21 mph    
Visibility 10 miles    
Events      
T = Trace of Precipitation, MM = Missing Value Source: NWS Daily Summary

Daily Weather History Graph

Daily Weather History Graph

Search for Another Location

Airport or City:

Trip Planner

Search our weather history database for the weather conditions in past years. The results will help you decide how hot, cold, wet, or windy it might be!

Date:

Astronomy

Oct. 14, 2010 Rise Set
Actual Time 7:05 AM CDT 6:26 PM CDT
Civil Twilight 6:39 AM CDT 6:51 PM CDT
Nautical Twilight 6:10 AM CDT 7:21 PM CDT
Astronomical Twilight 5:40 AM CDT 7:50 PM CDT
Moon 1:56 PM CDT (10/14) No Moon Set
Length of Visible Light 12h 12m
Length of Day
11h 21m
Waxing Crescent, 48% of the Moon is Illuminated
Oct 14
Waxing Crescent
Oct 14
First Quarter
Oct 22
Full
Oct 30
Last Quarter
Nov 5
New

Hourly Weather History & Observations

Time (CDT) Temp. Dew Point Humidity Pressure Visibility Wind Dir Wind Speed Gust Speed Precip Events Conditions
12:53 AM 63.0 °F 48.9 °F 60% 30.14 in 10.0 mi North 9.2 mph - N/A   Clear
1:53 AM 61.0 °F 46.0 °F 58% 30.15 in 10.0 mi North 9.2 mph 17.3 mph N/A   Clear
2:53 AM 60.1 °F 41.0 °F 49% 30.16 in 10.0 mi North 10.4 mph - N/A   Clear
3:53 AM 57.0 °F 39.9 °F 53% 30.17 in 10.0 mi North 8.1 mph - N/A   Clear
4:53 AM 55.9 °F 39.0 °F 53% 30.18 in 10.0 mi North 8.1 mph - N/A   Clear
5:53 AM 53.6 °F 39.2 °F 58% 30.20 in 10.0 mi NNW 6.9 mph - N/A   Clear
6:53 AM 51.1 °F 39.0 °F 63% 30.20 in 10.0 mi North 5.8 mph - N/A   Clear
7:53 AM 53.1 °F 39.9 °F 61% 30.22 in 10.0 mi NNW 4.6 mph - N/A   Clear
8:53 AM 60.1 °F 37.9 °F 44% 30.23 in 10.0 mi NNE 6.9 mph - N/A   Clear
9:53 AM 63.0 °F 37.0 °F 38% 30.24 in 10.0 mi North 8.1 mph - N/A   Clear
10:53 AM 68.0 °F 34.0 °F 28% 30.24 in 10.0 mi NE 11.5 mph - N/A   Clear
11:53 AM 70.0 °F 30.9 °F 24% 30.23 in 10.0 mi NE 10.4 mph 18.4 mph N/A   Clear
12:53 PM 71.1 °F 30.0 °F 22% 30.21 in 10.0 mi NE 12.7 mph 20.7 mph N/A   Clear
1:53 PM 73.0 °F 30.9 °F 21% 30.17 in 10.0 mi North 6.9 mph 16.1 mph N/A   Clear
2:53 PM 73.0 °F 30.9 °F 21% 30.15 in 10.0 mi NNE 8.1 mph - N/A   Clear
3:53 PM 73.9 °F 28.0 °F 18% 30.13 in 10.0 mi North 8.1 mph - N/A   Clear
4:53 PM 73.0 °F 27.0 °F 18% 30.11 in 10.0 mi North 5.8 mph - N/A   Clear
5:53 PM 71.1 °F 28.0 °F 20% 30.10 in 10.0 mi NNW 5.8 mph - N/A   Partly Cloudy
6:53 PM 66.0 °F 28.9 °F 25% 30.10 in 10.0 mi Calm Calm - N/A   Partly Cloudy
7:53 PM 62.1 °F 33.1 °F 34% 30.09 in 10.0 mi WSW 3.5 mph - N/A   Clear
8:53 PM 59.0 °F 36.0 °F 42% 30.09 in 10.0 mi Calm Calm - N/A   Clear
9:53 PM 55.9 °F 36.0 °F 47% 30.07 in 10.0 mi SW 5.8 mph - N/A   Clear
10:53 PM 57.2 °F 35.6 °F 44% 30.08 in 10.0 mi SW 3.5 mph - N/A   Partly Cloudy
11:53 PM 55.0 °F 35.1 °F 47% 30.06 in 10.0 mi SSW 6.9 mph - N/A   Clear